Regional Weather Roundup
Issued by NWS

Home | Current Version | Previous Version | Graphics & Text | Print | Product List | Glossary Off
Versions: 1 2 3 4 5 6 7 8 9 10 11 12 13 14 15 16 17 18 19 20 21 22 23 24 25 26 27 28 29 30 31 32 33 34 35 36 37 38 39 40 41 42 43 44 45 46 47 48 49 50

000
ASUS43 KDMX 210707
RWRIA

WEATHER ROUNDUP FOR IOWA
NATIONAL WEATHER SERVICE DES MOINES IA
100 AM CST SUN DEC 21 2014

NOTE: "FAIR" INDICATES FEW OR NO CLOUDS BELOW 12,000 FEET WITH NO
SIGNIFICANT WEATHER AND/OR OBSTRUCTIONS TO VISIBILITY.

* - THESE STATIONS ARE NOT NWS STATIONS...THUS NOT UNDER NWS
QUALITY CONTROL.  THEY ALSO DO NOT REPORT WEATHER SUCH
AS PRECIPITATION OR FOG.

IAZ001>003-012>014-020>022-031>034-043>046-210800-
   NORTHWEST IOWA

CITY           SKY/WX    TMP DP  RH WIND       PRES   REMARKS
CARROLL *      FOG       34  34 100 SE9       30.01F VSB 1/4 WCI  26
CHEROKEE *     CLOUDY    32  32 100 S8        29.99F FOG     WCI  25
DENISON *      FOG       34  34 100 CALM      29.97F VSB 3/4
LE MARS *      CLOUDY    32  32 100 S10       29.97F FOG     WCI  24
ORANGE CITY *  FOG       32  30  93 S8        29.96F VSB 3/4 WCI  25
SHELDON *      FOG       30  30 100 S14       29.95F VSB 3/4 WCI  20
SIOUX CITY     CLOUDY    33  32  96 SE9       29.97F FOG     WCI  25
SPENCER        CLOUDY    32  30  92 S13       29.99F FOG     WCI  22
STORM LAKE *   FOG       30  30 100 S12       29.98F VSB 1/2 WCI  21
$$

IAZ055>058-069>071-079>083-090>094-210800-
   SOUTHWEST IOWA

CITY           SKY/WX    TMP DP  RH WIND       PRES   REMARKS
ATLANTIC *     CLOUDY    37  37 100 S8        30.03F FOG     WCI  31
AUDUBON *      HAZE      36  30  80 S9        30.02F VSB 1   WCI  29
CLARINDA *     PTCLDY    37  36  93 S8        30.06F WCI  31
COUNCIL BLFS * FOG       34  34 100 SE9       29.99F VSB 1/4 WCI  26
CRESTON *      CLOUDY    37  37 100 S15       30.05S FOG     WCI  28
HARLAN  *      CLOUDY    34  34 100 S9        30.04F FOG     WCI  26
LAMONI         CLOUDY    37  35  92 S13       30.07F WCI  29
RED OAK *      CLOUDY    37  37 100 S7        30.03F WCI  32
SHENANDOAH *   MOCLDY    37  37 100 S14       30.03F WCI  29
$$

IAZ047>049-059>061-072>074-084-210800-
   CENTRAL IOWA

CITY           SKY/WX    TMP DP  RH WIND       PRES   REMARKS
AMES           FOG       34  33  96 S7        30.07F VSB 1/2 WCI  28
ANKENY *       CLOUDY    36  36 100 S7        30.08S FOG     WCI  30
CHARITON *     CLOUDY    37  36  93 S16       30.08F FOG     WCI  28
DES MOINES     CLOUDY    38  36  92 S9        30.08F FOG     WCI  31
GRINNELL*      FOG       34  34 100 S8        30.09F VSB 1/2 WCI  27
KNOXVILLE *    CLOUDY    37  36  93 S10       30.07F FOG     WCI  30
MARSHALLTOWN   FOG       33  33 100 SE10      30.07F VSB 1/4 WCI  25
PELLA *        CLOUDY    37  36  93 S7        30.11S FOG     WCI  32
PERRY *        FOG       34  34 100 SE7       30.05F VSB 1/4 WCI  28
$$

IAZ004>006-015-016-023>025-035-036-210800-
   NORTH CENTRAL IOWA

CITY           SKY/WX    TMP DP  RH WIND       PRES   REMARKS
ALGONA *       CLOUDY    34  27  75 S14       30.02F HAZE    WCI  24
CLARION *      CLOUDY    34  34 100 SE13      30.04F FOG     WCI  25
ESTHERVILLE    CLOUDY    31  30  96 S16       29.98F FOG     WCI  20
FORT DODGE *   CLOUDY    34  30  86 S8        30.04F WCI  27
MASON CITY     CLOUDY    32  32 100 S10       30.06F FOG     WCI  24
FOREST CITY *  CLOUDY    32  32 100 S8        30.04F FOG     WCI  25
IOWA FALLS *   FOG       34  32  93 SE8       30.07F VSB 1/2 WCI  27
$$

IAZ007>011-017>019-026>030-037>042-050>054-066-210800-
   NORTHEAST IOWA

CITY           SKY/WX    TMP DP  RH WIND       PRES   REMARKS
CEDAR RAPIDS   FOG       33  33 100 S8        30.12F VSB 1/4 WCI  26
CHARLES CITY * FOG       32  32 100 S10       30.09F VSB 1/4 WCI  24
CLINTON *      CLOUDY    32  28  86 S8        30.20S WCI  25
DECORAH *      FOG       30  30 100 S8        30.09F VSB 1/4 WCI  23
DUBUQUE        CLOUDY    31  30  96 S12       30.13F FOG     WCI  22
MONTICELLO *   FOG       32  32 100 SE8       30.14S VSB 1/2 WCI  25
OELWEIN *      FOG       32  32 100 S9        30.11S VSB 0   WCI  24
WATERLOO       CLOUDY    32  32 100 S6        30.10F FOG     WCI  26
$$

IAZ064-065-067-068-078-210800-
   EAST CENTRAL IOWA

CITY           SKY/WX    TMP DP  RH WIND       PRES   REMARKS
DAVENPORT      CLOUDY    33  31  92 S9        30.17F FOG     WCI  25
IOWA CITY      CLOUDY    34  34 100 SE7       30.16S FOG     WCI  28
MT. PLEASANT * CLOUDY    36  36 100 S7        30.15F FOG     WCI  30
MUSCATINE *    CLOUDY    36  34  93 S6        30.17F FOG     WCI  31
QUAD CITIES    CLOUDY    34  31  88 S9        30.17F FOG     WCI  27
$$

IAZ062-063-075>077-085>089-095>099-210800-
   SOUTHEAST IOWA

CITY           SKY/WX    TMP DP  RH WIND       PRES   REMARKS
BURLINGTON     LGT RAIN  36  34  92 S8        30.16S WCI  30
FAIRFIELD *    CLOUDY    36  36 100 S9        30.13F FOG     WCI  29
FORT MADISON * CLOUDY    37  37 100 S8        30.17S FOG     WCI  31
KEOKUK *       CLOUDY    37  36  93 S9        30.16F WCI  31
OSKALOOSA *    CLOUDY    36  34  93 S7        30.11F FOG     WCI  30
CENTERVILLE *  CLOUDY    37  37 100 S12       30.12F WCI  30
OTTUMWA        CLOUDY    36  34  92 S8        30.11F FOG     WCI  30
WASHINGTON *   CLOUDY    36  36 100 S10       30.14F FOG     WCI  28
$$

ABBREVIATIONS USED IN REMARKS
   TC - TEMPERATURES IN CELSIUS
  WCI - WIND CHILL INDEX
   HX - HEAT INDEX
  VSB - VISIBILITY
$$



USA.gov is the U.S. government's official web portal to all federal, state and local government web resources and services.